TimeCDT,TemperatureF,Dew PointF,Humidity,Sea Level PressureIn,VisibilityMPH,Wind Direction,Wind SpeedMPH,Gust SpeedMPH,PrecipitationIn,Events,Conditions,WindDirDegrees,DateUTC
12:15 AM,46.4,33.8,62,30.07,10.0,NE,5.8,-,N/A,,Clear,50,2012-11-03 05:15:00
12:35 AM,46.4,33.8,62,30.07,7.0,ENE,5.8,-,N/A,,Clear,70,2012-11-03 05:35:00
12:55 AM,46.4,33.8,62,30.07,10.0,ENE,5.8,-,N/A,,Clear,60,2012-11-03 05:55:00
1:15 AM,46.4,33.8,62,30.07,7.0,ENE,4.6,-,N/A,,Clear,70,2012-11-03 06:15:00
1:35 AM,46.4,33.8,62,30.07,7.0,ENE,4.6,-,N/A,,Clear,70,2012-11-03 06:35:00
1:55 AM,46.4,33.8,62,30.06,7.0,East,5.8,-,N/A,,Clear,100,2012-11-03 06:55:00
2:15 AM,46.4,33.8,62,30.07,10.0,East,3.5,-,N/A,,Clear,80,2012-11-03 07:15:00
2:35 AM,46.4,33.8,62,30.05,10.0,East,5.8,-,N/A,,Clear,80,2012-11-03 07:35:00
2:55 AM,46.4,33.8,62,30.04,10.0,East,4.6,-,N/A,,Clear,90,2012-11-03 07:55:00
3:15 AM,46.4,33.8,62,30.04,10.0,East,6.9,-,N/A,,Clear,100,2012-11-03 08:15:00
3:35 AM,46.4,33.8,62,30.04,10.0,East,9.2,-,N/A,,Mostly Cloudy,100,2012-11-03 08:35:00
3:55 AM,46.4,33.8,62,30.03,10.0,East,6.9,-,N/A,,Mostly Cloudy,100,2012-11-03 08:55:00
4:15 AM,46.4,33.8,62,30.03,10.0,East,5.8,-,N/A,,Mostly Cloudy,100,2012-11-03 09:15:00
4:35 AM,46.4,33.8,62,30.03,10.0,East,5.8,-,N/A,,Scattered Clouds,100,2012-11-03 09:35:00
4:55 AM,44.6,33.8,66,30.03,10.0,ESE,5.8,-,N/A,,Mostly Cloudy,110,2012-11-03 09:55:00
5:15 AM,44.6,33.8,66,30.03,10.0,East,4.6,-,N/A,,Overcast,90,2012-11-03 10:15:00
5:35 AM,44.6,33.8,66,30.03,10.0,East,4.6,-,N/A,,Overcast,80,2012-11-03 10:35:00
5:55 AM,46.4,33.8,62,30.04,10.0,East,5.8,-,N/A,,Mostly Cloudy,80,2012-11-03 10:55:00
6:15 AM,44.6,33.8,66,30.04,10.0,ENE,5.8,-,N/A,,Scattered Clouds,60,2012-11-03 11:15:00
6:35 AM,44.6,33.8,66,30.04,10.0,ENE,6.9,-,N/A,,Mostly Cloudy,60,2012-11-03 11:35:00
6:55 AM,46.4,35.6,66,30.04,20.0,ENE,11.5,-,N/A,,Mostly Cloudy,60,2012-11-03 11:55:00
7:55 AM,46.4,35.6,66,30.05,20.0,ENE,11.5,-,N/A,,Mostly Cloudy,70,2012-11-03 12:55:00
8:55 AM,48.2,35.6,62,30.04,20.0,ENE,11.5,-,N/A,,Scattered Clouds,70,2012-11-03 13:55:00
9:57 AM,51.8,35.6,54,30.03,20.0,East,9.2,-,N/A,,Scattered Clouds,100,2012-11-03 14:57:00
10:53 AM,53.6,35.6,51,30.02,20.0,ESE,11.5,-,N/A,,Mostly Cloudy,120,2012-11-03 15:53:00
11:56 AM,57.2,37.4,48,30.00,20.0,ESE,8.1,-,N/A,,Scattered Clouds,110,2012-11-03 16:56:00
12:52 PM,60.8,37.4,42,29.99,20.0,NE,8.1,-,N/A,,Partly Cloudy,50,2012-11-03 17:52:00
1:54 PM,62.6,39.2,42,29.99,20.0,North,8.1,-,N/A,,Overcast,10,2012-11-03 18:54:00
2:50 PM,62.6,39.2,42,30.00,20.0,NNW,9.2,-,N/A,,Overcast,340,2012-11-03 19:50:00
3:50 PM,60.8,39.2,45,30.02,20.0,North,9.2,-,N/A,,Overcast,360,2012-11-03 20:50:00
4:50 PM,53.6,39.2,58,30.05,20.0,NNE,13.8,-,N/A,,Overcast,30,2012-11-03 21:50:00
5:50 PM,51.8,37.4,58,30.08,20.0,North,11.5,-,N/A,,Overcast,10,2012-11-03 22:50:00
6:55 PM,50.0,37.4,62,30.10,10.0,North,8.1,-,N/A,,Overcast,350,2012-11-03 23:55:00
7:15 PM,50.0,35.6,58,30.12,10.0,North,9.2,-,N/A,,Overcast,10,2012-11-04 00:15:00
7:35 PM,50.0,37.4,62,30.12,10.0,North,11.5,-,N/A,,Overcast,10,2012-11-04 00:35:00
7:55 PM,46.4,37.4,71,30.13,10.0,NNE,13.8,20.7,N/A,,Mostly Cloudy,20,2012-11-04 00:55:00
8:15 PM,44.6,37.4,76,30.12,10.0,NNE,12.7,-,N/A,,Scattered Clouds,20,2012-11-04 01:15:00
8:35 PM,44.6,37.4,76,30.13,10.0,North,6.9,-,N/A,,Scattered Clouds,360,2012-11-04 01:35:00
8:55 PM,44.6,37.4,76,30.14,10.0,North,4.6,-,N/A,,Mostly Cloudy,10,2012-11-04 01:55:00
9:15 PM,44.6,37.4,76,30.15,10.0,North,4.6,-,N/A,,Overcast,360,2012-11-04 02:15:00
9:35 PM,44.6,37.4,76,30.16,10.0,North,5.8,-,N/A,,Overcast,360,2012-11-04 02:35:00
9:55 PM,44.6,37.4,76,30.17,10.0,North,5.8,-,N/A,,Overcast,10,2012-11-04 02:55:00
10:15 PM,44.6,37.4,76,30.17,10.0,NNE,9.2,-,N/A,,Overcast,20,2012-11-04 03:15:00
10:35 PM,42.8,37.4,81,30.17,10.0,NNE,6.9,-,N/A,,Scattered Clouds,20,2012-11-04 03:35:00
10:55 PM,42.8,37.4,81,30.17,10.0,North,3.5,-,N/A,,Clear,360,2012-11-04 03:55:00
11:15 PM,42.8,37.4,81,30.16,10.0,North,4.6,-,N/A,,Clear,360,2012-11-04 04:15:00
11:35 PM,41.0,37.4,87,30.15,10.0,North,3.5,-,N/A,,Clear,360,2012-11-04 04:35:00
11:55 PM,41.0,35.6,81,30.15,10.0,North,4.6,-,N/A,,Clear,10,2012-11-04 04:55:00